Hourly Weather Sudol

Today, 18 January, Monday

Time Temperature Precipitation Wind Pressure Humidity
00:00 -11°C° 0 mm 1 mps 760 mmHg 93%
01:00 -10°C° 0 mm 1 mps 759 mmHg 94%
02:00 -10°C° 0 mm 1 mps 759 mmHg 94%
03:00 -10°C° 0 mm 1 mps 759 mmHg 94%
04:00 -9°C° 0 mm 1 mps 759 mmHg 95%
05:00 -9°C° 0 mm 1 mps 759 mmHg 95%
06:00 -9°C° 0 mm 1 mps 758 mmHg 95%
07:00 -9°C° 0 mm 1 mps 758 mmHg 95%
08:00 -8°C° 0 mm 1 mps 758 mmHg 92%
09:00 -7°C° 0 mm 1 mps 758 mmHg 90%
10:00 -6°C° 0 mm 1 mps 758 mmHg 88%
11:00 -4°C° 0 mm 1 mps 758 mmHg 88%
12:00 -3°C° 0 mm 1 mps 758 mmHg 87%
13:00 -2°C° 0 mm 1 mps 758 mmHg 87%
14:00 -1°C° 0.1 mm 1 mps 757 mmHg 90%
15:00 -1°C° 0.1 mm 1 mps 757 mmHg 94%
16:00 -3°C° 0.1 mm 2 mps 757 mmHg 97%
17:00 -2°C° 0.1 mm 2 mps 757 mmHg 97%
18:00 -1°C° 0.1 mm 3 mps 757 mmHg 97%
19:00 0°C° 0.1 mm 3 mps 756 mmHg 98%
20:00 0°C° 0.4 mm 3 mps 756 mmHg 97%
21:00 -1°C° 0.4 mm 4 mps 756 mmHg 97%
22:00 -1°C° 0.4 mm 4 mps 755 mmHg 97%
23:00 -1°C° 0.4 mm 4 mps 755 mmHg 97%

Tomorrow, 19 January, Tuesday

Time Temperature Precipitation Wind Pressure Humidity
00:00 -1°C° 0.4 mm 4 mps 755 mmHg 97%
01:00 -1°C° 0.4 mm 5 mps 755 mmHg 97%
02:00 0°C° 0.3 mm 5 mps 754 mmHg 97%
03:00 0°C° 0.3 mm 5 mps 754 mmHg 97%
04:00 0°C° 0.3 mm 5 mps 754 mmHg 96%
05:00 0°C° 0 mm 5 mps 753 mmHg 96%
06:00 0°C° 0 mm 5 mps 753 mmHg 96%
07:00 0°C° 0 mm 4 mps 753 mmHg 95%
08:00 0°C° 0 mm 4 mps 753 mmHg 94%
09:00 0°C° 0 mm 4 mps 752 mmHg 93%
10:00 0°C° 0 mm 4 mps 752 mmHg 92%
11:00 0°C° 0.1 mm 4 mps 751 mmHg 94%
12:00 -1°C° 0.1 mm 5 mps 751 mmHg 95%
13:00 -1°C° 0.1 mm 5 mps 750 mmHg 97%
14:00 -1°C° 0.5 mm 5 mps 750 mmHg 97%
15:00 -1°C° 0.5 mm 5 mps 749 mmHg 97%
16:00 -1°C° 0.5 mm 5 mps 748 mmHg 97%
17:00 -1°C° 0.6 mm 5 mps 747 mmHg 97%
18:00 0°C° 0.6 mm 5 mps 747 mmHg 97%
19:00 0°C° 0.6 mm 4 mps 746 mmHg 97%
20:00 +1°C° 0.8 mm 5 mps 746 mmHg 95%
21:00 +2°C° 0.8 mm 6 mps 746 mmHg 94%
22:00 +3°C° 0.8 mm 6 mps 746 mmHg 92%
23:00 +3°C° 0 mm 6 mps 746 mmHg 91%

Day after tomorrow, 20 January, Wednesday

Time Temperature Precipitation Wind Pressure Humidity
00:00 +3°C° 0 mm 6 mps 746 mmHg 91%
01:00 +3°C° 0 mm 6 mps 747 mmHg 90%
02:00 +2°C° 0 mm 6 mps 747 mmHg 89%
03:00 +2°C° 0 mm 6 mps 746 mmHg 89%
04:00 +2°C° 0 mm 6 mps 746 mmHg 89%
05:00 +1°C° 0 mm 6 mps 746 mmHg 88%
06:00 +1°C° 0 mm 5 mps 746 mmHg 88%
07:00 +1°C° 0 mm 5 mps 746 mmHg 88%
08:00 +1°C° 0 mm 5 mps 746 mmHg 85%
09:00 +1°C° 0 mm 5 mps 746 mmHg 83%
10:00 +1°C° 0 mm 5 mps 746 mmHg 80%
11:00 +2°C° 0 mm 6 mps 746 mmHg 79%
12:00 +3°C° 0 mm 6 mps 746 mmHg 78%
13:00 +3°C° 0 mm 6 mps 746 mmHg 78%
14:00 +3°C° 0 mm 5 mps 746 mmHg 79%
15:00 +2°C° 0 mm 5 mps 746 mmHg 79%
16:00 +2°C° 0 mm 5 mps 746 mmHg 80%
17:00 +2°C° 0 mm 5 mps 746 mmHg 80%
18:00 +1°C° 0 mm 4 mps 746 mmHg 80%
19:00 +1°C° 0 mm 4 mps 746 mmHg 80%
20:00 +1°C° 0 mm 4 mps 746 mmHg 80%
21:00 +1°C° 0 mm 4 mps 746 mmHg 80%
22:00 0°C° 0 mm 4 mps 746 mmHg 80%
23:00 0°C° 0 mm 4 mps 746 mmHg 80%

21 January, Thursday

Time Temperature Precipitation Wind Pressure Humidity
00:00 0°C° 0 mm 4 mps 746 mmHg 79%
01:00 0°C° 0 mm 4 mps 746 mmHg 78%
02:00 0°C° 0 mm 4 mps 745 mmHg 78%
03:00 0°C° 0 mm 4 mps 745 mmHg 78%
04:00 +1°C° 0 mm 3 mps 745 mmHg 77%
05:00 +1°C° 0 mm 3 mps 745 mmHg 78%
06:00 0°C° 0 mm 3 mps 745 mmHg 78%
07:00 0°C° 0 mm 3 mps 745 mmHg 78%
08:00 +1°C° 0 mm 3 mps 745 mmHg 78%
09:00 0°C° 0 mm 4 mps 745 mmHg 78%
10:00 +1°C° 0 mm 4 mps 745 mmHg 78%
11:00 +3°C° 0 mm 4 mps 745 mmHg 77%
12:00 +3°C° 0 mm 5 mps 745 mmHg 76%
13:00 +3°C° 0 mm 5 mps 745 mmHg 74%
14:00 +4°C° 0 mm 4 mps 744 mmHg 77%
15:00 +3°C° 0 mm 4 mps 744 mmHg 80%
16:00 +2°C° 0 mm 3 mps 743 mmHg 83%
17:00 +2°C° 0 mm 3 mps 743 mmHg 84%
18:00 +2°C° 0 mm 3 mps 743 mmHg 84%
19:00 +1°C° 0 mm 3 mps 743 mmHg 85%
20:00 +1°C° 0 mm 3 mps 743 mmHg 83%
21:00 +1°C° 0 mm 4 mps 742 mmHg 82%
22:00 +1°C° 0 mm 4 mps 742 mmHg 80%
23:00 +1°C° 0 mm 4 mps 742 mmHg 79%

22 January, Friday

Time Temperature Precipitation Wind Pressure Humidity
00:00 +1°C° 0 mm 4 mps 741 mmHg 77%
01:00 +1°C° 0 mm 4 mps 741 mmHg 76%
02:00 +2°C° 0 mm 3 mps 740 mmHg 76%
03:00 +2°C° 0 mm 3 mps 740 mmHg 76%
04:00 +2°C° 0 mm 3 mps 740 mmHg 76%
05:00 +2°C° 0 mm 2 mps 739 mmHg 79%
06:00 +2°C° 0 mm 2 mps 738 mmHg 82%
07:00 +2°C° 0 mm 2 mps 738 mmHg 85%
08:00 +2°C° 0 mm 2 mps 738 mmHg 86%
09:00 +3°C° 0 mm 2 mps 737 mmHg 86%
10:00 +3°C° 0 mm 2 mps 737 mmHg 87%
11:00 +3°C° 0 mm 3 mps 737 mmHg 85%
12:00 +4°C° 0 mm 3 mps 737 mmHg 83%
13:00 +5°C° 0 mm 3 mps 737 mmHg 81%
14:00 +4°C° 0 mm 3 mps 737 mmHg 81%
15:00 +4°C° 0 mm 4 mps 737 mmHg 81%
16:00 +4°C° 0 mm 4 mps 737 mmHg 82%
17:00 +3°C° 0 mm 4 mps 738 mmHg 82%
18:00 +3°C° 0 mm 4 mps 738 mmHg 83%
19:00 +3°C° 0 mm 4 mps 739 mmHg 84%
20:00 +1°C° 0 mm 4 mps 739 mmHg 83%
21:00 +1°C° 0 mm 4 mps 740 mmHg 83%
22:00 +1°C° 0 mm 4 mps 740 mmHg 83%
23:00 0°C° 0 mm 4 mps 740 mmHg 83%

23 January, Saturday

Time Temperature Precipitation Wind Pressure Humidity
00:00 0°C° 0 mm 4 mps 740 mmHg 84%
01:00 0°C° 0 mm 4 mps 740 mmHg 84%
02:00 +1°C° 0 mm 3 mps 740 mmHg 86%
03:00 +1°C° 0 mm 3 mps 740 mmHg 87%
04:00 +1°C° 0 mm 3 mps 741 mmHg 88%
05:00 +1°C° 0 mm 3 mps 741 mmHg 88%
06:00 0°C° 0 mm 3 mps 741 mmHg 88%
07:00 0°C° 0 mm 3 mps 741 mmHg 89%
08:00 +1°C° 0 mm 3 mps 741 mmHg 87%
09:00 +1°C° 0 mm 3 mps 742 mmHg 86%
10:00 +1°C° 0 mm 3 mps 742 mmHg 84%
11:00 +2°C° 0 mm 3 mps 742 mmHg 81%
12:00 +3°C° 0 mm 3 mps 742 mmHg 78%
13:00 +4°C° 0 mm 3 mps 742 mmHg 75%
14:00 +3°C° 0 mm 3 mps 742 mmHg 78%
15:00 +4°C° 0 mm 2 mps 742 mmHg 82%
16:00 +3°C° 0 mm 2 mps 742 mmHg 85%
17:00 +2°C° 0 mm 2 mps 742 mmHg 87%
18:00 +1°C° 0 mm 2 mps 742 mmHg 90%
19:00 +1°C° 0 mm 2 mps 743 mmHg 92%
20:00 -1°C° 0 mm 2 mps 743 mmHg 92%
21:00 -1°C° 0 mm 2 mps 743 mmHg 92%
22:00 -1°C° 0 mm 2 mps 743 mmHg 93%
23:00 -1°C° 0 mm 2 mps 743 mmHg 93%
Show more